Location: Walnut Point State Park
(39.6958°N, 88.0345°W)
Time: 07:46:59
(UTC-06:00)

Cosmos 1833 Rocket - Visible Passes

Search period start: 11 December 2016 00:00
Search period end: 21 December 2016 00:00
Orbit: 831 x 841 km, 71.0° (Epoch: 10 December)

Date Brightness Start Highest point End Pass type
(mag) Time Alt. Az. Time Alt. Az. Time Alt. Az.
11 Dec 2.6 17:28:49 10° NNW 17:34:30 84° ENE 17:40:07 10° SSE visible
11 Dec 5.8 19:15:39 10° WNW 19:17:34 12° W 19:19:29 10° WSW visible
12 Dec 2.6 17:12:09 10° NNW 17:17:49 78° ENE 17:23:25 10° SSE visible
12 Dec 5.8 18:58:28 10° WNW 19:00:57 13° W 19:03:26 10° WSW visible
13 Dec 5.4 06:19:01 10° SSE 06:23:24 24° E 06:27:48 10° NE visible
13 Dec 2.7 16:55:29 10° NNW 17:01:08 72° ENE 17:06:44 10° SSE visible
13 Dec 5.7 18:41:25 10° WNW 18:44:20 14° W 18:47:16 10° SW visible
14 Dec 5.5 06:02:35 10° SSE 06:06:46 22° E 06:10:58 10° NE visible
14 Dec 5.7 18:24:26 10° WNW 18:27:43 16° W 18:31:00 10° SW visible
15 Dec 5.6 05:46:11 10° SE 05:50:09 20° E 05:54:06 10° NE visible
15 Dec 5.6 18:07:30 10° WNW 18:11:06 18° W 18:14:41 10° SW visible
16 Dec 5.6 05:29:49 10° SE 05:33:31 18° E 05:37:13 10° ENE visible
16 Dec 5.6 17:50:37 10° NW 17:54:28 19° W 17:58:20 10° SW visible
17 Dec 5.7 05:13:30 10° SE 05:16:54 16° E 05:20:18 10° ENE visible
17 Dec 5.5 17:33:45 10° NW 17:37:51 21° W 17:41:57 10° SSW visible
18 Dec 5.7 04:57:13 10° SE 05:00:17 15° E 05:03:20 10° ENE visible
18 Dec 5.4 17:16:55 10° NW 17:21:14 23° W 17:25:32 10° SSW visible
19 Dec 5.8 04:41:00 10° SE 04:43:39 14° E 04:46:19 10° ENE visible
19 Dec 2.7 06:21:11 10° SSW 06:26:49 76° WNW 06:32:30 10° NNE visible
19 Dec 5.3 17:00:06 10° NW 17:04:36 25° WSW 17:09:05 10° SSW visible
20 Dec 5.8 04:24:55 10° ESE 04:27:02 12° E 04:29:11 10° ENE visible
20 Dec 2.7 06:04:30 10° SSW 06:10:09 83° WNW 06:15:50 10° NNE visible
